Overview Statistics Trail Chart Weather Telemetry Raw packets
 

This is the latest recevied weather packets stored in our database for station/object K5OLV. If no packets are shown the sender has not sent any weather packets the latest 10 day(s).

<< 8 9 10 11 12 13 14 >>
Time Temp. Humidity Pressure Rain* Wind** Luminosity Snow
1788557422 32.78° C 57% 1013.6 hPa 0 mm - 272 W/m² -
1788557121 32.78° C 56% 1013.4 hPa 0 mm - 229 W/m² -
1788556816 33.33° C 56% 1013.5 hPa 0 mm - 284 W/m² -
1788556510 33.33° C 56% 1013.5 hPa 0 mm - 342 W/m² -
1788556206 33.33° C 56% 1013.8 hPa 0 mm - 305 W/m² -
1788555905 33.33° C 54% 1013.6 hPa 0 mm - 348 W/m² -
1788555601 33.89° C 54% 1013.8 hPa 0 mm - 363 W/m² -
1788555296 34.44° C 53% 1013.6 hPa 0 mm - 442 W/m² -
1788554993 33.33° C 54% 1013.6 hPa 0 mm - 451 W/m² -
1788554688 33.33° C 54% 1013.6 hPa 0 mm - 476 W/m² -
1788554384 33.89° C 54% 1014 hPa 0 mm - 477 W/m² -
1788554080 33.89° C 55% 1014 hPa 0 mm - 453 W/m² -
1788553776 34.44° C 54% 1013.9 hPa 0 mm - 495 W/m² -
1788553472 35° C 52% 1014.1 hPa 0 mm - 516 W/m² -
1788553168 34.44° C 52% 1014.1 hPa 0 mm - 531 W/m² -
1788552863 34.44° C 53% 1014.3 hPa 0 mm - 556 W/m² -
1788552559 34.44° C 53% 1014.3 hPa 0 mm - 535 W/m² -
1788552257 33.89° C 55% 1014.3 hPa 0 mm - 559 W/m² -
1788551952 33.89° C 54% 1014.3 hPa 0 mm - 555 W/m² -
1788551649 33.89° C 57% 1014.5 hPa 0 mm - 560 W/m² -
1788551345 33.33° C 55% 1014.6 hPa 0 mm - 569 W/m² -
1788551044 33.33° C 56% 1014.7 hPa 0 mm - 602 W/m² -
1788550740 34.44° C 54% 1014.6 hPa 0 mm - 599 W/m² -
1788550435 33.89° C 53% 1014.9 hPa 0 mm - 610 W/m² -
1788550130 34.44° C 54% 1014.8 hPa 0 mm - 634 W/m² -

* Rain latest hour (hover to see other rain measurements)
** Current wind speed in m/s (hover to see current wind gust speed)